[[{"header":{"parameterUnit":"m.s-1","parameterCategory":1,"la1":30.2992,"la2":30.254,"lo1":-89.0895,"lo2":-89.0443,"dy":0.0025,"dx":0.0025,"nx":19,"ny":19,"refTime":"2026-04-24T21:00:00:Z","depth":0,"parameterNumber":2,"parameterNumberName":"U-component_of_WINDS"},"data":[0,0,0,1.3533,1.3534,1.3549,1.3549,1.3561,1.3561,0,0,0,0,0,0,0,0,0,0,0,1.3525,1.3525,1.3533,1.3534,1.3549,1.3549,1.3561,1.3561,0,0,0,0,0,0,0,0,0,0,0,1.3525,1.3525,1.3525,1.3534,1.3549,1.3549,1.3561,1.3552,0,0,0,0,0,0,0,0,0,0,1.3539,1.3527,1.3525,1.3525,1.3534,1.3549,1.3549,1.3552,1.3553,1.3552,0,1.3549,0,1.3556,1.3562,1.3562,0,0,0,1.3537,1.3526,1.3534,1.3525,1.3534,1.3549,1.3543,1.3552,1.3553,1.3553,1.355,1.355,1.3556,1.3562,1.3562,1.3545,1.3545,0,0,1.3536,1.3525,1.3533,1.3534,1.3532,1.3542,1.3543,1.3553,1.3549,1.355,1.3551,1.3556,1.3562,1.3562,1.3546,1.3545,0,0,0,1.3531,1.3524,1.3532,1.3534,1.3537,1.3543,1.3544,1.3549,1.3552,1.3551,1.3556,1.3562,1.3562,1.3546,1.3546,1.3525,0,0,0,1.3531,1.3522,1.3532,1.3525,1.3537,1.3543,1.3539,1.3551,1.3553,1.3556,1.3562,1.3562,1.3546,1.3546,1.3526,1.3516,0,0,0,1.3525,1.3521,1.3522,1.3525,1.3531,1.3543,1.3547,1.3552,1.3556,1.3562,1.3562,1.3546,1.3546,1.3527,1.3518,1.3509,0,0,0,1.3516,1.3502,1.3521,1.3509,1.3531,1.353,1.3547,1.3547,1.355,1.3562,1.3546,1.3546,1.3527,1.3519,1.351,1.35,1.3495,0,0,1.3493,1.3499,1.3493,1.351,1.3504,1.3529,1.3519,1.3531,1.3541,1.3543,1.3543,1.3525,1.3518,1.351,1.3469,1.3465,0,0,0,1.3482,1.3477,1.3478,1.348,1.349,1.3498,1.3512,1.3517,1.352,1.354,1.352,1.3516,1.3512,1.3507,1.3504,1.3501,1.3543,1.3543,1.3543,1.3434,1.3449,1.3439,1.3456,1.3458,1.3475,1.3478,1.3487,1.35,1.3495,1.3496,1.347,1.3464,1.3461,1.3458,1.3492,1.3492,1.3491,1.3491,1.3402,1.3398,1.3418,1.3415,1.3431,1.3429,1.3445,1.3455,1.3456,1.347,1.3467,1.3481,1.3456,1.3454,1.349,1.349,1.349,1.3491,1.3491,1.3372,1.3373,1.338,1.3386,1.3388,1.3406,1.3406,1.3421,1.3434,1.343,1.3433,1.3433,1.3436,1.3431,1.3431,1.3431,1.3431,1.343,1.343,1.3338,1.3347,1.3345,1.3356,1.336,1.3367,1.3384,1.3389,1.3397,1.3407,1.3407,1.3421,1.3451,1.3458,1.3429,1.3429,1.3429,1.343,1.343,1.33,1.3311,1.3309,1.3313,1.3327,1.333,1.3349,1.3357,1.3362,1.3362,1.3378,1.3397,1.3404,1.3407,1.3413,1.3374,1.3374,1.3374,1.3374,1.3274,1.328,1.3281,1.3288,1.3295,1.3312,1.331,1.3324,1.334,1.3345,1.3353,1.3362,1.3365,1.337,1.3374,1.338,1.3333,1.3333,1.3333,1.3251,1.3259,1.3254,1.327,1.3283,1.3293,1.3292,1.3298,1.3319,1.3332,1.3349,1.3351,1.3366,1.337,1.3382,1.3388,1.3399,0,0]},{"header":{"parameterUnit":"m.s-1","parameterCategory":1,"la1":30.2992,"la2":30.254,"lo1":-89.0895,"lo2":-89.0443,"dy":0.0025,"dx":0.0025,"nx":19,"ny":19,"refTime":"2026-04-24T21:00:00:Z","depth":0,"parameterNumber":3,"parameterNumberName":"V-component_of_WINDS"},"data":[0,0,0,4.2383,4.2383,4.2403,4.2403,4.2421,4.2421,0,0,0,0,0,0,0,0,0,0,0,4.2372,4.2372,4.2383,4.2383,4.2403,4.2403,4.2421,4.2421,0,0,0,0,0,0,0,0,0,0,0,4.2372,4.2372,4.2372,4.2383,4.2403,4.2403,4.2421,4.2408,0,0,0,0,0,0,0,0,0,0,4.239,4.2377,4.2372,4.2372,4.2383,4.2403,4.2403,4.2408,4.2409,4.2409,0,4.2408,0,4.2415,4.2422,4.2422,0,0,0,4.2385,4.2376,4.2385,4.2372,4.2383,4.2403,4.2395,4.2409,4.241,4.241,4.2408,4.2409,4.2415,4.2422,4.2422,4.2415,4.2414,0,0,4.2384,4.2373,4.2384,4.2386,4.2383,4.2394,4.2395,4.241,4.2406,4.2409,4.241,4.2416,4.2422,4.2422,4.2415,4.2415,0,0,0,4.2379,4.2372,4.2382,4.2385,4.2389,4.2395,4.2396,4.2406,4.241,4.241,4.2416,4.2422,4.2422,4.2415,4.2415,4.2397,0,0,0,4.2379,4.237,4.2381,4.2374,4.2389,4.2398,4.2392,4.2409,4.2411,4.2416,4.2422,4.2422,4.2415,4.2415,4.2398,4.239,0,0,0,4.2372,4.2369,4.2371,4.2374,4.2382,4.2398,4.2403,4.2409,4.2414,4.2422,4.2422,4.2415,4.2415,4.2399,4.2391,4.2385,0,0,0,4.2362,4.2353,4.237,4.2363,4.2382,4.2387,4.2403,4.2407,4.2412,4.2422,4.2415,4.2415,4.2399,4.2392,4.2386,4.2378,4.2374,0,0,4.2344,4.235,4.2347,4.2363,4.2363,4.2385,4.2382,4.2396,4.2405,4.2411,4.2411,4.2398,4.2391,4.2386,4.2355,4.2352,0,0,0,4.2338,4.2335,4.2337,4.2342,4.2354,4.2364,4.238,4.2385,4.2391,4.2406,4.2394,4.2391,4.2388,4.2385,4.2382,4.238,4.2413,4.2413,4.2413,4.2295,4.2311,4.2307,4.2325,4.233,4.2348,4.2353,4.2364,4.2376,4.2373,4.2374,4.2354,4.235,4.2348,4.2346,4.2372,4.2371,4.2371,4.2371,4.2271,4.227,4.229,4.2293,4.2309,4.2311,4.2329,4.2338,4.2342,4.2354,4.2352,4.2363,4.2344,4.2343,4.237,4.237,4.2371,4.2371,4.2371,4.2245,4.2247,4.2256,4.2267,4.2273,4.2292,4.2296,4.231,4.2323,4.2322,4.2325,4.2325,4.2328,4.2323,4.2323,4.2322,4.2322,4.2322,4.2322,4.2214,4.2224,4.2227,4.2241,4.2247,4.2257,4.2277,4.2283,4.2294,4.2304,4.2304,4.2317,4.2339,4.2345,4.2321,4.2321,4.2322,4.2322,4.2322,4.2182,4.2193,4.2196,4.2203,4.2222,4.2228,4.2247,4.2259,4.2267,4.2268,4.2283,4.2297,4.2303,4.2306,4.231,4.2279,4.2279,4.2279,4.2279,4.216,4.2166,4.2174,4.2184,4.2196,4.2215,4.2218,4.2234,4.2252,4.2257,4.2264,4.2271,4.2273,4.2278,4.2281,4.2286,4.2249,4.2249,4.2249,4.2142,4.215,4.215,4.217,4.2187,4.22,4.2204,4.2214,4.2236,4.2249,4.2262,4.2263,4.2275,4.2278,4.2289,4.2293,4.2302,0,0]}]]